カタログに戻る

ARTEMIS P2

THEMIS C

運用中科学LPO
NORAD 30582·PAYLOAD·🇺🇸 United States

打ち上げ Feb 17, 2007 から Cape Canaveral Space Force Station

Loading…

TLE

古いSource: Space-Track

元期: Apr 5, 2010, 22:45 UTC

1 30582U 07004C   10095.94791667 -.00028999  00000-0  99999-4 0  9990
2 30582 025.5707 349.3222 6489751 071.1237 089.1304 00.02043025  5772

AllMySatでARTEMIS P2をリアルタイム追跡

Download on the App Store